Flag for Germany Weather past 2 weeks in Mühlacker, Baden-Württemberg, Germany

Now
59 °F

Partly sunny.


Feels Like: 58 °F
Forecast: 49 / 71 °F
Wind: 6 mph from North

Location: Stuttgart-Echterdingen

Current Time: Jul 29, 2015 at 2:20:36 PM

Latest Report: Jul 29, 2015 at 1:50 PM


Visibility: N/A

Pressure: 29.86 "Hg

Humidity: 82%

Dew point: 54 °F

Location of MühlackerLocation

Historic Weather in Mühlacker — Graph

°F

Mühlacker temperature yesterday

Maximum temperature yesterday: 72 °F (at 2:20 PM)
Minimum temperature yesterday: 59 °F (at 11:20 PM)
Average temperature yesterday: 66 °F

Past Weeks' High & Low Weather Summary

 TemperatureHumidityPressure
High95 °F (Jul 22, 2:20 PM)94% (Jul 23, 1:50 AM)30.15 "Hg (Jul 23, 1:50 AM)
Low48 °F (Jul 26, 5:50 AM)26% (Jul 16, 5:20 PM)29.71 "Hg (Jul 24, 7:20 PM)
Average72 °F61%29.97 "Hg
* Reported Jul 14 1:20 PM — Jul 29 1:20 PM, Mühlacker, Weather by CustomWeather, © 2015

Note: Actual official high and low records may vary slightly from our data, if they occured in-between our weather recording intervals... More about our weather records

Advertising

Mühlacker weather history for previous 24 hours

 ConditionsComfort  
Time TempWeatherWind HumidityBarometerVisibility
1:20 PM
Wed, Jul 29
59 °FPartly sunny.6 mph82%29.83 "HgN/A
12:50 PM57 °FLight rain. Partly sunny.10 mph88%29.83 "HgN/A
12:20 PM63 °FBroken clouds.7 mph68%29.83 "HgN/A
11:50 AM63 °FBroken clouds.5 mph68%29.83 "HgN/A
11:20 AM63 °FBroken clouds.6 mph68%29.83 "HgN/A
10:50 AM61 °FPartly sunny.3 mph72%29.83 "HgN/A
10:20 AM61 °FPartly sunny.2 mph77%29.83 "HgN/A
9:20 AM59 °FBroken clouds.3 mph77%29.86 "HgN/A
8:50 AM57 °FBroken clouds.3 mph82%29.86 "HgN/A
8:20 AM57 °FPartly sunny.3 mph82%29.86 "HgN/A
7:50 AM55 °FPartly sunny.2 mph82%29.89 "HgN/A
7:20 AM55 °FPartly sunny.2 mph82%29.89 "HgN/A
6:50 AM55 °FPassing clouds.3 mph82%29.89 "HgN/A
6:20 AM55 °FPassing clouds.3 mph82%29.89 "HgN/A
5:50 AM55 °FPassing clouds.3 mph82%29.89 "HgN/A
5:20 AM55 °FPassing clouds.5 mph88%29.89 "HgN/A
4:50 AM55 °FLight rain. Partly cloudy.2 mph88%29.89 "HgN/A
4:20 AM55 °FLight rain. Partly cloudy.3 mph88%29.92 "HgN/A
3:50 AM55 °FLight rain. Partly cloudy.3 mph88%29.92 "HgN/A
3:20 AM55 °FPartly cloudy.5 mph88%29.92 "HgN/A
2:50 AM55 °FPassing clouds.3 mph88%29.92 "HgN/A
2:20 AM55 °FLight rain. Passing clouds.2 mph88%29.92 "HgN/A
1:50 AM55 °FLight rain. Passing clouds.2 mph88%29.92 "HgN/A
1:20 AM55 °FRain. Passing clouds.5 mph88%29.95 "HgN/A
12:50 AM57 °FPassing clouds.3 mph77%29.92 "HgN/A
11:20 PM
Tue, Jul 28
59 °FLight rain. Passing clouds.12 mph72%29.92 "HgN/A
10:50 PM61 °FLight rain. Passing clouds.10 mph63%29.92 "HgN/A
10:20 PM63 °FPartly cloudy.7 mph56%29.89 "HgN/A
9:50 PM63 °FLight rain. Broken clouds.14 mph59%29.89 "HgN/A
9:20 PM64 °FSunny.9 mph52%29.86 "Hg10 mi
8:50 PM66 °FSunny.9 mph49%29.86 "Hg10 mi
8:20 PM66 °FPassing clouds.14 mph43%29.86 "HgN/A
7:50 PM68 °FSunny.13 mph40%29.86 "Hg10 mi
7:20 PM68 °FSunny.14 mph40%29.83 "Hg10 mi
6:50 PM70 °FSunny.16 mph40%29.83 "Hg10 mi
6:20 PM70 °FSunny.15 mph38%29.83 "Hg10 mi
5:50 PM70 °FPassing clouds.15 mph40%29.83 "HgN/A
5:20 PM70 °FPassing clouds.16 mph38%29.83 "HgN/A
4:50 PM70 °FPassing clouds.13 mph40%29.83 "HgN/A
4:20 PM70 °FPassing clouds.17 mph43%29.83 "HgN/A
3:50 PM70 °FPassing clouds.17 mph40%29.83 "HgN/A
3:20 PM72 °FPassing clouds.18 mph38%29.83 "HgN/A
2:50 PM72 °FPassing clouds.18 mph41%29.83 "HgN/A
2:20 PM72 °FPassing clouds.16 mph38%29.83 "HgN/A
Weather by CustomWeather, © 2015

See weather overviewHow to use our weather pages